Location: New Plymouth
(39.0670°S, 174.0830°E)
Time: 14:48:59
(UTC+12:00)

USA 32 - Pass Details

Date: 24 January 2019
Orbit: 779 x 781 km, 85.0° (Epoch: 13 April)

Event Time Altitude Azimuth Distance (km) Brightness Sun altitude
Rises 21:30:36 0° 355° (N) 3,254 7.0 -8.3°
Reaches altitude 10° 21:32:56 10° 354° (N) 2,335 6.2 -8.7°
Maximum altitude 21:38:11 81° 267° (W) 804 4.2 -9.5°
Drops below altitude 10° 21:43:31 10° 178° (S) 2,368 7.0 -10.4°
Sets 21:45:55 0° 176° (S) 3,304 7.8 -10.8°
